Home   Weather   Youngstown   Past weeks

Flag for USA Past Weather in Youngstown, Ohio, USA — Yesterday and Last 2 Weeks

Now
40 °F

Passing clouds.


Feels Like: 37 °F
Forecast: 36 / 68 °F
Wind: 5 mph from North

Location: Youngstown-Warren Regional Airport

Current Time: Apr 23, 2017 at 1:37:28 am

Latest Report: Apr 23, 2017 at 12:51 am


Visibility: 10 mi

Pressure: 30.14 "Hg

Humidity: 77%

Dew Point: 33 °F

Location of YoungstownLocation

Past Weather in Youngstown — Graph

°F

Youngstown Temperature Yesterday

Maximum temperature yesterday: 52 °F (at 5:51 pm)
Minimum temperature yesterday: 39 °F (at 6:51 am)
Average temperature yesterday: 46 °F

High & Low Weather Summary for the Past Weeks

 TemperatureHumidityPressure
High79 °F (Apr 20, 3:51 pm)100% (Apr 20, 5:51 am)30.49 "Hg (Apr 20, 5:51 am)
Low29 °F (Apr 8, 6:51 am)24% (Apr 8, 6:51 pm)29.79 "Hg (Apr 21, 3:51 am)
Average57 °F58%30.11 "Hg
* Reported Apr 7 11:51 pm — Apr 22 11:51 pm, Youngstown, Weather by CustomWeather, © 2017

Note: Actual official high and low records may vary slightly from our data, if they occured in-between our weather recording intervals... More about our weather records

Advertising

Youngstown Weather History for the Previous 24 Hours

Scroll right to see more
 ConditionsComfort  
Time TempWeatherWind HumidityBarometerVisibility
11:51 pm
Sat, Apr 22
42 °FMostly cloudy.8 mph73%30.13 "Hg10 mi
10:51 pm44 °FMostly cloudy.6 mph68%30.12 "Hg10 mi
9:51 pm45 °FMostly cloudy.8 mph68%30.12 "Hg10 mi
8:51 pm46 °FMostly cloudy.5 mph63%30.11 "Hg10 mi
7:51 pm49 °FMostly cloudy.8 mph57%30.09 "Hg10 mi
6:51 pm50 °FMostly cloudy.16 mph50%30.09 "Hg10 mi
5:51 pm52 °FMostly cloudy.13 mph50%30.09 "Hg10 mi
4:51 pm51 °FMostly cloudy.13 mph54%30.08 "Hg10 mi
3:51 pm51 °FBroken clouds.10 mph54%30.09 "Hg10 mi
2:51 pm51 °FMostly cloudy.10 mph56%30.11 "Hg10 mi
1:51 pm50 °FMore clouds than sun.10 mph59%30.09 "Hg10 mi
1:34 pm49 °FMore clouds than sun.14 mph59%30.08 "Hg10 mi
12:51 pm48 °FMostly cloudy.10 mph61%30.09 "Hg10 mi
11:51 am47 °FMostly cloudy.12 mph64%30.08 "Hg10 mi
10:51 am45 °FOvercast.12 mph68%30.08 "Hg10 mi
9:51 am43 °FOvercast.8 mph74%30.09 "Hg10 mi
8:51 am42 °FOvercast.10 mph73%30.09 "Hg10 mi
7:51 am41 °FOvercast.7 mph80%30.08 "Hg10 mi
7:24 am41 °FMostly cloudy.10 mph76%30.06 "Hg10 mi
6:51 am39 °FScattered clouds.9 mph79%30.04 "Hg10 mi
5:51 am40 °FPartly cloudy.9 mph77%30.03 "Hg10 mi
4:51 am42 °FMostly cloudy.10 mph71%30.03 "Hg10 mi
3:51 am43 °FMostly cloudy.10 mph71%30.04 "Hg10 mi
2:51 am44 °FOvercast.12 mph71%30.03 "Hg10 mi
1:51 am45 °FOvercast.16 mph68%30.05 "Hg10 mi
Weather by CustomWeather, © 2017

See weather overviewHow to use our weather pages